[[{"header":{"parameterUnit":"m.s-1","parameterCategory":1,"la1":30.2991,"la2":30.254,"lo1":-89.0895,"lo2":-89.0444,"dy":0.0017,"dx":0.0017,"nx":28,"ny":28,"refTime":"2024-02-25T03:00:00:Z","depth":0,"parameterNumber":2,"parameterNumberName":"U-component_of_WINDS"},"data":[0,0,0,0,0,0,0,0,0,0,0,0,0,0,0,0,0,0,0,0,0,0,0,0,0,0,0,0,0,0,0,0,0,0,0,0,0,0,0,0,0,0,0,0,0,0,0,0,0,0,0,0,0,0,0,0,0,0,-1.1658,-1.1659,0,-1.1757,-1.1758,-1.1759,-1.176,-1.1758,-1.1757,-1.1756,-1.1859,-1.1863,-1.1867,0,0,0,0,0,0,0,0,0,0,0,0,0,-1.1473,-1.1476,-1.1658,-1.1659,-1.1661,-1.1757,-1.1758,-1.1759,-1.176,-1.1758,-1.1757,-1.1755,-1.1858,-1.1862,-1.1867,0,0,0,0,0,0,0,0,0,0,0,0,0,-1.1561,-1.1478,-1.1658,-1.1672,-1.1675,-1.1756,-1.1758,-1.176,-1.176,-1.1758,-1.1756,-1.1755,-1.1856,-1.1862,-1.1868,-1.1942,0,0,-1.1886,-1.1888,0,0,0,0,0,0,0,0,-1.1556,-1.1568,-1.1669,-1.1672,-1.1674,-1.1744,-1.1731,-1.1821,-1.1761,-1.1728,-1.1756,-1.1754,-1.1822,-1.1831,-1.1854,-1.1947,-1.1951,-1.1886,-1.189,-1.1892,-1.1894,0,0,0,0,0,0,0,-1.155,-1.1563,-1.1697,-1.167,-1.1674,-1.1675,-1.1685,-1.1748,-1.1785,-1.1731,-1.1731,-1.1742,-1.1823,-1.1848,-1.1856,-1.1953,-1.1886,-1.1891,-1.1895,-1.1897,-1.2115,-1.2117,0,0,0,0,0,0,-1.154,-1.1558,-1.1694,-1.17,-1.1609,-1.168,-1.1691,-1.1724,-1.1784,-1.1791,-1.1744,-1.1742,-1.1839,-1.1849,-1.186,-1.1953,-1.1892,-1.1898,-1.1901,-1.2113,-1.2116,-1.2118,0,0,0,0,0,0,-1.1536,-1.1552,-1.169,-1.1629,-1.1647,-1.1685,-1.1721,-1.1726,-1.1751,-1.1794,-1.1801,-1.1762,-1.1838,-1.1851,-1.1922,-1.1956,-1.19,-1.1906,-1.211,-1.2114,-1.2117,-1.2139,0,0,0,0,0,0,-1.1531,-1.1551,-1.1579,-1.163,-1.165,-1.175,-1.1723,-1.173,-1.1761,-1.1759,-1.1813,-1.182,-1.1837,-1.1913,-1.1928,-1.1964,-1.191,-1.2107,-1.2112,-1.2116,-1.2135,-1.2143,-1.2149,0,0,0,0,0,-1.1524,-1.1581,-1.158,-1.1597,-1.1686,-1.1752,-1.1764,-1.1782,-1.1764,-1.1793,-1.1821,-1.1818,-1.195,-1.1921,-1.1937,-1.1975,-1.2105,-1.2111,-1.2116,-1.2132,-1.2141,-1.2149,0,0,0,0,0,0,-1.1533,-1.1588,-1.1588,-1.1662,-1.1703,-1.1752,-1.1789,-1.1791,-1.1837,-1.1834,-1.1855,-1.1867,-1.1938,-1.1963,-1.193,-1.2052,-1.2026,-1.2034,-1.2033,-1.2041,-1.2048,-1.2041,-1.1915,0,0,0,0,0,-1.1544,-1.1592,-1.1638,-1.1699,-1.1719,-1.1751,-1.178,-1.1791,-1.1834,-1.1851,-1.1884,-1.1926,-1.1977,-1.201,-1.206,-1.2138,-1.2151,-1.2173,-1.218,-1.2185,-1.2193,-1.2239,-1.2249,-1.2135,-1.2135,-1.2135,0,0,-1.1566,-1.1602,-1.1631,-1.1702,-1.1734,-1.1785,-1.1765,-1.1819,-1.1858,-1.1859,-1.1929,-1.1954,-1.2003,-1.2079,-1.2114,-1.2102,-1.2227,-1.2191,-1.2195,-1.22,-1.2245,-1.2256,-1.2265,-1.2138,-1.2138,-1.2137,0,0,-1.1634,-1.1665,-1.1721,-1.1754,-1.1803,-1.1824,-1.1837,-1.1887,-1.1904,-1.1974,-1.1976,-1.2023,-1.211,-1.2145,-1.2174,-1.2257,-1.2257,-1.2272,-1.2308,-1.2353,-1.2362,-1.237,-1.2401,-1.2412,-1.2279,-1.228,-1.228,0,-1.1656,-1.1732,-1.1749,-1.1804,-1.1836,-1.1839,-1.1897,-1.1928,-1.1992,-1.2014,-1.2,-1.211,-1.2143,-1.2228,-1.2249,-1.2271,-1.2289,-1.2267,-1.2359,-1.2367,-1.2375,-1.2405,-1.2417,-1.2281,-1.2281,-1.2281,-1.2281,0,-1.1757,-1.181,-1.1849,-1.1911,-1.1947,-1.2002,-1.203,-1.2064,-1.2072,-1.2095,-1.2167,-1.2207,-1.2265,-1.2286,-1.2294,-1.2373,-1.2364,-1.2354,-1.2329,-1.2387,-1.2416,-1.2428,-1.2284,-1.2283,-1.2282,-1.2282,0,0,-1.1833,-1.1904,-1.1918,-1.1947,-1.2002,-1.2044,-1.2101,-1.2158,-1.2188,-1.2231,-1.2281,-1.2355,-1.2347,-1.238,-1.2392,-1.2431,-1.2497,-1.2417,-1.2418,-1.2432,-1.2589,-1.2597,-1.261,-1.2496,-1.2499,-1.25,-1.2585,0,-1.1908,-1.2009,-1.2027,-1.2115,-1.2165,-1.217,-1.222,-1.226,-1.2283,-1.233,-1.2355,-1.2409,-1.2392,-1.2413,-1.2451,-1.248,-1.2529,-1.2474,-1.2545,-1.2547,-1.2534,-1.2625,-1.2634,-1.2712,-1.2596,-1.2598,-1.26,0,-1.2008,-1.2055,-1.2148,-1.2199,-1.2221,-1.2265,-1.232,-1.2364,-1.241,-1.2424,-1.2462,-1.247,-1.2531,-1.2502,-1.2587,-1.255,-1.258,-1.2599,-1.2602,-1.2611,-1.2578,-1.2638,-1.2737,-1.2749,-1.2617,-1.2616,-1.2615,0,-1.2057,-1.2143,-1.221,-1.2235,-1.2294,-1.2326,-1.2352,-1.2397,-1.243,-1.2478,-1.2501,-1.2555,-1.2585,-1.2628,-1.2651,-1.2627,-1.2736,-1.2708,-1.2751,-1.275,-1.2774,-1.2773,-1.2882,-1.2791,-1.2791,-1.279,-1.279,0,-1.214,-1.2197,-1.2233,-1.2275,-1.234,-1.2361,-1.2425,-1.2451,-1.2491,-1.2539,-1.2546,-1.2591,-1.2618,-1.2668,-1.2686,-1.2755,-1.2768,-1.2783,-1.2788,-1.2783,-1.2782,-1.2804,-1.28,-1.2793,-1.2793,-1.2792,-1.2792,0,-1.2205,-1.2231,-1.2306,-1.2356,-1.2371,-1.2417,-1.2461,-1.2502,-1.2525,-1.2586,-1.2602,-1.2639,-1.2697,-1.2724,-1.2797,-1.281,-1.2889,-1.2889,-1.2873,-1.2875,-1.2918,-1.2914,-1.3046,-1.3065,-1.296,-1.2961,-1.2961,0,-1.2257,-1.2301,-1.2357,-1.2389,-1.2417,-1.2469,-1.2504,-1.2526,-1.2562,-1.2619,-1.2654,-1.2713,-1.2762,-1.2856,-1.289,-1.2946,-1.2948,-1.2991,-1.2957,-1.2952,-1.2951,-1.2949,-1.2955,-1.2997,-1.2998,-1.2999,-1.3,0,-1.2346,-1.2357,-1.2407,-1.2461,-1.2502,-1.2546,-1.259,-1.2616,-1.2646,-1.2686,-1.2746,-1.2784,-1.2858,-1.2918,-1.2976,-1.3005,-1.3009,-1.301,-1.3023,-1.302,-1.301,-1.3018,-1.2892,-1.3007,-1.3006,-1.3006,-1.3005,-1.3005,-1.2408,-1.2448,-1.2494,-1.255,-1.2585,-1.2625,-1.2668,-1.2696,-1.2747,-1.2809,-1.2819,-1.2884,-1.2931,-1.301,-1.3041,-1.3093,-1.3083,-1.3101,-1.3107,-1.3111,-1.3115,-1.3001,-1.3103,-1.3103,-1.3103,-1.3103,-1.3103,0,-1.2499,-1.253,-1.258,-1.2641,-1.2685,-1.2683,-1.2731,-1.2769,-1.2825,-1.2868,-1.2916,-1.2987,-1.3045,-1.3083,-1.3142,-1.3177,-1.318,-1.3191,-1.319,-1.3197,-1.3119,-1.3103,-1.3188,-1.3188,-1.3188,-1.3188,-1.3188,-1.3188,-1.2552,-1.2622,-1.2639,-1.2726,-1.2756,-1.2819,-1.2847,-1.2885,-1.292,-1.2998,-1.3046,-1.3071,-1.3113,-1.3176,-1.3229,-1.324,-1.3262,-1.3274,-1.3284,-1.3211,-1.3202,-1.3194,-1.3179,-1.3278,-1.3279,-1.3358,-1.3359,-1.3359]},{"header":{"parameterUnit":"m.s-1","parameterCategory":1,"la1":30.2991,"la2":30.254,"lo1":-89.0895,"lo2":-89.0444,"dy":0.0017,"dx":0.0017,"nx":28,"ny":28,"refTime":"2024-02-25T03:00:00:Z","depth":0,"parameterNumber":3,"parameterNumberName":"V-component_of_WINDS"},"data":[0,0,0,0,0,0,0,0,0,0,0,0,0,0,0,0,0,0,0,0,0,0,0,0,0,0,0,0,0,0,0,0,0,0,0,0,0,0,0,0,0,0,0,0,0,0,0,0,0,0,0,0,0,0,0,0,0,0,-0.9418,-0.9419,0,-0.948,-0.9481,-0.9482,-0.9509,-0.9509,-0.9509,-0.9509,-0.9572,-0.9573,-0.9575,0,0,0,0,0,0,0,0,0,0,0,0,0,-0.9323,-0.9325,-0.9418,-0.9419,-0.942,-0.948,-0.9481,-0.9482,-0.9509,-0.9509,-0.9509,-0.9509,-0.9571,-0.9573,-0.9575,0,0,0,0,0,0,0,0,0,0,0,0,0,-0.9373,-0.9325,-0.9418,-0.9441,-0.9443,-0.948,-0.9481,-0.9482,-0.9509,-0.9509,-0.9509,-0.9509,-0.957,-0.9573,-0.9576,-0.9594,0,0,-0.9584,-0.9585,0,0,0,0,0,0,0,0,-0.937,-0.9376,-0.9437,-0.9439,-0.9442,-0.9487,-0.947,-0.952,-0.9509,-0.9484,-0.9509,-0.9509,-0.9544,-0.9548,-0.956,-0.9597,-0.96,-0.9584,-0.9585,-0.9587,-0.9587,0,0,0,0,0,0,0,-0.9366,-0.9374,-0.9443,-0.9437,-0.9441,-0.9448,-0.9454,-0.948,-0.9514,-0.9486,-0.9488,-0.9495,-0.9545,-0.9558,-0.9562,-0.9601,-0.9584,-0.9586,-0.9588,-0.9589,-0.9656,-0.9656,0,0,0,0,0,0,-0.9359,-0.937,-0.9441,-0.9445,-0.9405,-0.9449,-0.9457,-0.9473,-0.9514,-0.952,-0.9496,-0.9497,-0.9553,-0.9559,-0.9564,-0.9589,-0.9587,-0.9589,-0.9591,-0.9656,-0.9656,-0.9656,0,0,0,0,0,0,-0.9357,-0.9365,-0.9438,-0.9408,-0.9418,-0.9451,-0.9468,-0.9474,-0.9487,-0.9521,-0.9527,-0.9502,-0.9553,-0.9561,-0.9587,-0.9591,-0.959,-0.9593,-0.9655,-0.9656,-0.9656,-0.9638,0,0,0,0,0,0,-0.9354,-0.9364,-0.9372,-0.9408,-0.9419,-0.946,-0.9469,-0.9475,-0.9491,-0.9493,-0.9528,-0.9534,-0.9554,-0.9583,-0.9589,-0.9595,-0.9595,-0.9655,-0.9656,-0.9656,-0.9638,-0.9637,-0.9637,0,0,0,0,0,-0.9351,-0.9364,-0.9372,-0.938,-0.943,-0.946,-0.9466,-0.9489,-0.9491,-0.9499,-0.9521,-0.9533,-0.959,-0.9585,-0.9593,-0.9599,-0.9655,-0.9656,-0.9656,-0.9638,-0.9638,-0.9637,0,0,0,0,0,0,-0.9327,-0.9369,-0.9379,-0.9404,-0.9428,-0.9465,-0.9475,-0.9487,-0.9511,-0.9512,-0.9539,-0.9547,-0.957,-0.9587,-0.9581,-0.9619,-0.9623,-0.9625,-0.9607,-0.9607,-0.9606,-0.9602,-0.9597,0,0,0,0,0,-0.9325,-0.9346,-0.9382,-0.9401,-0.9413,-0.9442,-0.9456,-0.9471,-0.9497,-0.9507,-0.9531,-0.9556,-0.9579,-0.9594,-0.9617,-0.9641,-0.9649,-0.9649,-0.9648,-0.9648,-0.9649,-0.9663,-0.9663,-0.9658,-0.9658,-0.9658,0,0,-0.9321,-0.9346,-0.9358,-0.9397,-0.9417,-0.9439,-0.945,-0.9472,-0.9488,-0.9511,-0.9537,-0.9555,-0.9584,-0.9609,-0.9621,-0.9624,-0.9653,-0.9648,-0.9647,-0.9649,-0.9663,-0.9664,-0.9664,-0.9658,-0.9658,-0.9658,0,0,-0.9324,-0.9345,-0.9364,-0.9384,-0.9415,-0.9434,-0.9438,-0.9473,-0.9486,-0.9513,-0.953,-0.9549,-0.9589,-0.9609,-0.9625,-0.9635,-0.9647,-0.9642,-0.9639,-0.9652,-0.9652,-0.9653,-0.9657,-0.9658,-0.9643,-0.9643,-0.9643,0,-0.9314,-0.9347,-0.9371,-0.9393,-0.9409,-0.943,-0.9449,-0.9468,-0.9505,-0.9515,-0.9518,-0.9569,-0.959,-0.962,-0.9622,-0.9634,-0.964,-0.9638,-0.965,-0.9651,-0.9652,-0.9656,-0.9657,-0.9642,-0.9643,-0.9643,-0.9643,0,-0.9334,-0.9357,-0.9368,-0.9403,-0.9421,-0.9441,-0.9468,-0.9483,-0.9496,-0.9515,-0.9542,-0.9568,-0.9597,-0.9605,-0.9619,-0.9637,-0.9638,-0.9645,-0.965,-0.9651,-0.9655,-0.9657,-0.9641,-0.9642,-0.9642,-0.9642,0,0,-0.9325,-0.9373,-0.9377,-0.9393,-0.9429,-0.9446,-0.9467,-0.9496,-0.9508,-0.9533,-0.9551,-0.9584,-0.9591,-0.9608,-0.9624,-0.9635,-0.9642,-0.9641,-0.9642,-0.9641,-0.9664,-0.9659,-0.966,-0.965,-0.9651,-0.9651,-0.9662,0,-0.9333,-0.9371,-0.9393,-0.9422,-0.9443,-0.9464,-0.9482,-0.9506,-0.9524,-0.9544,-0.9564,-0.9587,-0.9594,-0.9605,-0.9617,-0.9639,-0.9647,-0.9638,-0.9667,-0.9668,-0.966,-0.9662,-0.9657,-0.9666,-0.9664,-0.9664,-0.9664,0,-0.9347,-0.9372,-0.9403,-0.9436,-0.9446,-0.9462,-0.949,-0.9509,-0.9536,-0.9549,-0.9568,-0.9584,-0.9607,-0.9609,-0.9641,-0.9634,-0.9647,-0.9659,-0.966,-0.9664,-0.9666,-0.9666,-0.9669,-0.967,-0.9667,-0.9667,-0.9666,0,-0.9337,-0.9378,-0.9402,-0.9415,-0.9455,-0.9465,-0.9482,-0.9509,-0.9525,-0.955,-0.956,-0.9587,-0.9601,-0.9621,-0.9644,-0.9644,-0.9673,-0.9677,-0.9684,-0.9683,-0.9689,-0.9689,-0.9694,-0.9697,-0.9697,-0.9697,-0.9697,0,-0.9344,-0.9362,-0.9398,-0.9413,-0.9434,-0.9459,-0.9479,-0.9497,-0.9521,-0.954,-0.9559,-0.9576,-0.9605,-0.9625,-0.9643,-0.9667,-0.9673,-0.9683,-0.9688,-0.9682,-0.9681,-0.9691,-0.9691,-0.9698,-0.9697,-0.9697,-0.9697,0,-0.9336,-0.9361,-0.9389,-0.9424,-0.9433,-0.9447,-0.9477,-0.9492,-0.9511,-0.9534,-0.9541,-0.9571,-0.9596,-0.9621,-0.9654,-0.9666,-0.9689,-0.9695,-0.968,-0.9683,-0.9688,-0.9687,-0.9701,-0.9704,-0.9704,-0.9704,-0.9704,0,-0.9339,-0.9354,-0.9391,-0.9405,-0.9421,-0.9443,-0.9459,-0.9485,-0.9501,-0.9533,-0.9544,-0.9571,-0.9593,-0.9632,-0.9657,-0.9683,-0.969,-0.9693,-0.9694,-0.9687,-0.969,-0.9689,-0.9691,-0.9692,-0.9692,-0.9692,-0.9692,0,-0.9342,-0.9353,-0.9376,-0.9403,-0.9422,-0.9444,-0.9468,-0.9478,-0.9507,-0.9524,-0.9551,-0.9568,-0.9603,-0.9629,-0.9657,-0.9675,-0.9688,-0.9691,-0.9694,-0.9688,-0.9679,-0.9684,-0.9679,-0.9691,-0.9691,-0.9691,-0.9691,-0.9691,-0.934,-0.9354,-0.9382,-0.9406,-0.9427,-0.9448,-0.9464,-0.9485,-0.9507,-0.9537,-0.955,-0.9577,-0.9604,-0.9644,-0.9661,-0.9681,-0.9685,-0.9689,-0.969,-0.9691,-0.9689,-0.9675,-0.9687,-0.9687,-0.9687,-0.9687,-0.9687,0,-0.9343,-0.9362,-0.9385,-0.9417,-0.9436,-0.9447,-0.9473,-0.9489,-0.9512,-0.9536,-0.9558,-0.9588,-0.9613,-0.964,-0.9667,-0.9678,-0.9685,-0.9684,-0.9684,-0.9688,-0.9685,-0.968,-0.9678,-0.9678,-0.9678,-0.9678,-0.9678,-0.9678,-0.9348,-0.9372,-0.9387,-0.9421,-0.944,-0.9466,-0.948,-0.9499,-0.9519,-0.9551,-0.9573,-0.959,-0.9615,-0.9644,-0.9668,-0.9675,-0.9684,-0.9682,-0.969,-0.9687,-0.9688,-0.9688,-0.9684,-0.9683,-0.9683,-0.9692,-0.9692,-0.9692]}]]